Regional Weather Roundup
Issued by NWS

Home | Current Version | Previous Version | Graphics & Text | Print | Product List | Glossary On
Versions: 1 2 3 4 5 6 7 8 9 10 11 12 13 14 15 16 17 18 19 20 21 22 23 24 25 26 27 28 29 30 31 32 33 34 35 36 37 38 39 40 41 42 43 44 45 46 47 48 49 50
000
ASUS45 KTFX 260710
RWRMT
MONTANA REGIONAL WEATHER ROUNDUP
NATIONAL WEATHER SERVICE GREAT FALLS MT
100 AM MDT MON JUN 26 2017

NOTE: "FAIR" INDICATES FEW OR NO CLOUDS BELOW 12000 FEET WITH NO
SIGNIFICANT WEATHER AND/OR OBSTRUCTIONS TO VISIBILITY.

MTZ001>007-043-260800-
WEST OF THE DIVIDE

CITY           SKY/WX    TMP DP  RH WIND       PRES   REMARKS
KALISPELL      CLEAR     53  48  83 CALM      30.02S
MISSOULA       CLEAR     58  47  66 CALM      30.05F
BUTTE          CLEAR     60  40  47 SE3       30.24S
MULLAN PASS    PTCLDY    66  37  34 SE9       30.19F
DEER LODGE       N/A     52  43  71 W3        30.19F
EUREKA           N/A     63  45  51 CALM      29.99S
HAMILTON         N/A     61  46  59 S5        30.08F
$$

MTZ008-052>055-260800-
SOUTHWEST MONTANA

CITY           SKY/WX    TMP DP  RH WIND       PRES   REMARKS
BOZEMAN        CLEAR     58  42  55 SW3       30.18S
DILLON         CLEAR     53  41  63 SW8       30.21S
W YELLOWSTONE  CLEAR     43  37  81 CALM      30.35R
ENNIS          CLEAR     50  39  66 CALM      30.28S
THREE FORKS      N/A     53  47  80 CALM      30.15S
$$

MTZ009-010-012-014-046-048-049-054-260800-
EAST SLOPES AND CENTRAL MONTANA

CITY           SKY/WX    TMP DP  RH WIND       PRES   REMARKS
CUT BANK       CLEAR     58  41  53 SE7       30.13F
GREAT FALLS    CLOUDY    65  37  35 SE10      30.12F
MALMSTROM AFB  CLEAR     61  40  46 S13       30.11F
HELENA         CLEAR     64  43  46 W7        30.14S
CHOTEAU          N/A     61  41  48 CALM      30.15F
$$

MTZ011-013-016-021-045-047-050-051-260800-
NORTH CENTRAL MONTANA

CITY           SKY/WX    TMP DP  RH WIND       PRES   REMARKS
HAVRE          CLEAR     59  40  49 E9        30.11F
LEWISTOWN      CLEAR     56  35  45 E8        30.19F
N BAR RANCH      N/A     54  32  43 SW8       30.26F
CHINOOK          N/A     61  41  48 E8        30.14S
FORT BENTON      N/A     66  37  34 MISG      30.11F
$$

MTZ017>020-022>027-061-062-260800-
NORTHEAST MONTANA

CITY           SKY/WX    TMP DP  RH WIND       PRES   REMARKS
GLASGOW        CLEAR     57  39  51 E12       30.18S
JORDAN           N/A     55  32  41 E6        30.17F
SIDNEY         CLEAR     52  41  66 N3        30.23R
WOLF POINT     CLEAR     52  39  61 E7        30.21S
MALTA          CLEAR     52  41  66 NE7       30.17S
PLENTYWOOD       N/A     52  43  71 CALM      30.24S
POPLAR           N/A     55  43  62 E7        30.22S
$$

MTZ028>42-056>058-260800-
SOUTHCENTRAL AND SOUTHEAST MONTANA

CITY           SKY/WX    TMP DP  RH WIND       PRES   REMARKS
BAKER          CLEAR     47  34  60 SE8       30.24F
BILLINGS       CLEAR     65  33  30 CALM      30.18F
LIVINGSTON     CLEAR     54  39  57 CALM      30.22S
MILES CITY     CLEAR     60  31  33 S6        30.18F
BIG TIMBER     CLEAR     55  39  54 CALM      30.24S
FORSYTH          N/A     59  32  36 CALM      30.18S
ROUNDUP          N/A     62  27  26 NE2       30.10S
$$

REGIONAL REPORTS...DAKOTAS

CITY           SKY/WX    TMP DP  RH WIND       PRES   REMARKS
WILLISTON      CLEAR     51  43  74 CALM      30.24S
MINOT          MOCLDY    50  42  74 S5        30.24S
DICKINSON      CLEAR     47  40  76 SE9       30.23S
BEACH            N/A     48  41  76 SE7       30.27R
CROSBY           N/A     45  45 100 E3        30.26S
TIOGA            N/A     43  43 100 NE7       30.27S
WATFORD CITY     N/A     48  43  81 E5        30.23S
BISMARCK       CLEAR     47  43  86 E5        30.26S
GRAND FORKS    CLEAR     45  42  89 W7        30.20F
FARGO          CLEAR     46  39  76 CALM      30.21R
BUFFALO SD       N/A     54  40  59 E6        30.19S
RAPID CITY     CLEAR     48  36  63 CALM      30.27S
$$

REGIONAL REPORTS...WYOMING/IDAHO/WASHINGTON

CITY           SKY/WX    TMP DP  RH WIND       PRES   REMARKS
GILLETTE       CLEAR     46  35  65 CALM      30.26F
SHERIDAN       CLEAR     50  41  71 S3        30.23F
BUFFALO WY     CLEAR     56  36  47 SW9       30.29F
CODY           CLEAR     57  36  45 S6        30.28F
YELLOWSTONE LA   N/A     41  35  79 NW3       30.44S
IDAHO FALLS    CLEAR     55  50  83 N3        30.18S
SALMON         CLEAR     57  45  62 S3        30.09S
BOISE          CLEAR     75  46  35 SE9       29.96S
SPOKANE        MOCLDY    70  49  47 W5        29.92S
$$

REGIONAL REPORTS...ALBERTA

CITY           SKY/WX    TMP DP  RH WIND       PRES   REMARKS
EDMONTON       CLEAR     66  48  52 S18G25    29.95F
CALGARY        PTCLDY    61  46  59 S14G20    30.02F
LETHBRIDGE     CLEAR     61  45  55 SE10G23   30.03F
MEDICINE HAT   CLEAR     59  45  58 E10       30.08F
WATERTON GATE    N/A     55  43  62 SW6         N/A
CARDSTON         N/A     61  45  55 SE7         N/A
ONEFOUR          N/A     55  39  54 E15         N/A
$$

REGIONAL REPORTS...SASKATCHEWAN

CITY           SKY/WX    TMP DP  RH WIND       PRES   REMARKS
SWIFT CURRENT  CLEAR     46  41  81 SE10      30.20S
REGINA         CLEAR     52  37  58 E5        30.25S
SASKATOON      CLEAR     52  39  62 S10       30.21F
CYPRESS HILLS    N/A     52  34  50 SE8         N/A
ROCKGLEN         N/A     50  39  66 E7          N/A
$$



USA.gov is the U.S. government's official web portal to all federal, state and local government web resources and services.